Location: Kailua
(21.4020°N, 157.7390°W)
Time: 06:58:50

Cosmos 2297 Rocket - Visible Passes

Search period start: 21 March 2018 00:00
Search period end: 31 March 2018 00:00
Orbit: 838 x 845 km, 71.0° (Epoch: 21 March)

Date Brightness Start Highest point End Pass type
(mag) Time Alt. Az. Time Alt. Az. Time Alt. Az.
28 Mar 4.6 21:06:08 10° N 21:06:23 11° N 21:06:23 11° N visible
29 Mar 4.3 20:51:07 10° N 20:52:07 14° NNE 20:52:07 14° NNE visible
30 Mar 4.0 20:36:06 10° N 20:37:55 18° NNE 20:37:55 18° NNE visible
